Location: Amsterdam
(30.7274°N, 84.4357°W)
Time: 02:48:40
(UTC+00:00)

Transit 2A Rocket - Pass Details

Date: 20 February 2026
Orbit: 583 x 900 km, 66.7° (Epoch: 8 March)

Event Time Altitude Azimuth Distance (km) Brightness Sun altitude
Rises 20:24:05 0° 204° (SSW) 3,421 9.2 34.7°
Reaches altitude 10° 20:26:31 10° 205° (SSW) 2,516 8.8 34.3°
Maximum altitude 20:32:26 87° 292° (WNW) 901 6.0 33.4°
Drops below altitude 10° 20:38:29 10° 24° (NNE) 2,572 7.3 32.4°
Sets 20:41:00 0° 25° (NNE) 3,503 7.9 31.9°
